星链-34726 (STARLINK-34726)

导读

STARLINK-34726是美国SpaceX公司星链互联网卫星星座中的一颗卫星,于2025年7月26日发射入轨,部署在低地球轨道。作为星链星座扩容的组成部分,它主要承担全球宽带互联网接入服务,能为偏远缺基础设施区域提供高速低延迟网络,支持视频通话、在线游戏等应用,也进一步扩大了星链星座覆盖规模,同时也延续了星链项目在轨道安全、天文观测等方面的争议。

Basic Information
目录编号:
64935
目录名称:
STARLINK-34726
国际标识:
2025-158D
轨道中心:
EARTH
卫星名称:
星链-34726
卫星全名:
星链-34726 (STARLINK-34726)
卫星状态:
在轨 (已飞行406 天)
发射日期:
2025-07-26 UTC
国别 :
美国 (US)
星等 :
--
Orbit Information
数据来源 国际轨道数据 AOE轨道数据
星历时间 2026-09-05T14:00:02+0800
8小时前
查看轨道信息
2026-09-02T08:00:00+0800
3天前
查看轨道信息
半长轴 6912.586km 6927.657km
偏心率 0.0001699 0.0002064
轨道倾角 97.286° 97.285°
近地点辐角 83.023° 68.426°
升交点赤经 106.896° 103.814°
平近点角 43.402° 72.793°
近地点 533.274km 548.09km
远地点 535.624km 550.95km
周期 95.328分钟 95.640分钟
每日圈数 15.10574 15.056472
Detailed Information
固有亮度:
5
最大亮度:
2.5
卫星平台:
Starlink V1.0
覆盖范围:
全球
运营商:
太空探索技术公司
运营商所在国:
美国
制造商(研发单位):
太空探索技术公司
制造商所在国:
美国
使用方式:
暂无
Satellite Introduction
Starlink 计划是 SpaceX 推出的全球卫星互联网项目,通过发射低轨道卫星,为全球尤其是偏远地区提供高速、低延迟的互联网服务。自 2019 年起,Starlink 已部署数千颗卫星,旨在缩小全球数字鸿沟,推动互联网普及。该项目还为军事、航空等行业提供通信支持,带来广泛经济效益。
2D Orbit Map
3D Orbit Map
Orbit Altitude Analysis Chart
Orbit Inclination Analysis Chart
Orbit Comprehensive Analysis Chart
View Comprehensive Chart